Tracking 18980 objects as of 23-Feb-2018
HD Live streaming from Space Station
objects crossing your sky now

SDS-4

Track SDS-4 now!
10-day predictions
SDS-4 is classified as:


NORAD ID: 38339
Int'l Code: 2012-025C
Perigee: 661.8 km
Apogee: 671.9 km
Inclination: 98.4 °
Period: 97.9 minutes
Semi major axis: 7037 km
RCS: 0.47 m2 (medium)
Launch date: May 17, 2012
Source: Japan (JPN)
Launch site: TANEGASHIMA SPACE CENTER (TNSTA)
aabbcc
Your satellite tracking list
Your tracking list is empty




NASA's NSSDC Master Catalog

Two Line Element Set (TLE):
1 38339U 12025C   18053.50789522 +.00000014 +00000-0 +11098-4 0  9999
2 38339 098.4087 059.5972 0007147 200.5154 159.5765 14.70427354309307
Source of the keplerian elements: AFSPC